#timestamp,LO_Frequency,Hit,StdDev 
1582020015.6,286047000.7,N
1582020035.5,286047002.4,N
1582020055.3,286047001.7,N
1582020075.1,286047002.8,N
1582020095.9,286047000.5,N
1582020115.7,286047000.0,N
1582020135.5,286047002.2,N
1582020155.4,286047003.0,N
1582020175.2,286047005.0,N
1582020195.1,286047007.6,Y
1582020196.0,286047007.6,P
1582020215.8,286047003.3,N
1582020235.7,286047003.4,N
1582020255.5,286047003.8,N
1582020275.3,286047001.3,N
1582020295.2,286047003.5,N
1582020315.0,286047004.2,N
1582020315.9,286047004.2,N
1582020335.8,286047000.4,N
1582020355.6,286047002.3,N
1582020375.4,286047003.2,N
1582020395.3,286047004.4,N
1582020415.1,286047004.3,N
1582020435.9,286047006.0,Y
1582020455.7,286047001.6,P
1582020475.5,286047004.3,P
1582020495.4,286047001.4,N
1582020515.2,286047001.4,N
1582020535.0,286047002.1,N
1582020535.9,286047002.1,N
1582020555.8,286047001.8,N
1582020575.6,286047003.3,Y
1582020595.5,286047001.3,P
1582020615.3,286047001.7,P
1582020635.1,286047002.8,P
1582020655.9,286047004.4,Y
1582020675.7,286047002.8,P
1582020695.6,286047000.7,N
1582020715.4,286046998.3,N
1582020735.2,286046998.6,N
1582020755.1,286046998.6,N
1582020756.0,286046998.6,N
1582020775.8,286047001.2,N
1582020795.7,286047000.8,N
1582020815.5,286047000.2,N
1582020835.3,286047000.4,N
1582020855.2,286047000.4,N
1582020875.0,286047001.1,N
1582020875.9,286047001.1,N
1582020895.7,286047000.6,N
1582020915.6,286046998.1,N
1582020935.4,286046998.7,N
1582020955.3,286047000.9,N
1582020975.1,286046996.7,N
1582020995.8,286046997.1,N
1582021015.7,286046997.7,N
1582021035.5,286046997.2,N
1582021055.4,286046997.9,N
1582021075.2,286046996.8,N
1582021095.0,286046997.9,N
1582021095.9,286046997.9,N
1582021115.8,286046997.0,N
1582021135.6,286046996.7,N
1582021155.4,286046997.0,N
1582021175.3,286046998.1,N
1582021195.1,286047000.1,N
1582021215.9,286047002.5,N
1582021235.7,286046999.8,N
1582021255.5,286047001.1,N
1582021275.4,286047000.7,N
1582021295.2,286046999.9,N
1582021315.1,286047002.8,N
1582021316.0,286047002.8,N
1582021335.8,286047002.1,N
1582021355.6,286046998.4,N
1582021375.5,286046998.9,N
1582021395.3,286047002.7,N
1582021415.2,286047001.7,N
1582021435.9,286047001.7,N
1582021455.7,286047001.6,N
1582021475.6,286047001.6,N
1582021495.4,286047002.5,N
1582021515.2,286047002.7,N
1582021535.1,286047004.1,N
1582021536.0,286047004.1,N
1582021555.8,286047003.6,N
1582021575.7,286047004.1,N
1582021595.5,286047004.4,N
1582021615.3,286047005.3,N
1582021635.2,286047005.4,N
1582021655.0,286047006.0,N
1582021655.9,286047006.0,N
1582021675.8,286047005.5,N
1582021695.6,286047003.5,N
1582021715.4,286047004.0,N
1582021735.3,286047001.7,N
1582021755.1,286047001.5,N
1582021775.9,286047002.0,N
1582021795.7,286047005.7,N
1582021815.5,286047001.9,N
1582021835.4,286047004.0,N
1582021855.2,286047001.9,N
1582021875.1,286047003.9,N
1582021876.0,286047003.9,N
1582021895.8,286047003.7,N
1582021915.6,286047001.7,N
1582021935.5,286046999.7,N
1582021955.3,286047002.8,N
1582021975.1,286047000.3,N
1582021995.9,286047002.6,N
1582022015.7,286047000.2,N
1582022035.6,286047000.9,N
1582022055.4,286047000.5,N
1582022075.2,286047000.6,N
1582022095.1,286047002.3,N
1582022096.0,286047002.3,N
1582022115.8,286047003.3,N
1582022135.7,286047004.1,N
1582022155.5,286047002.9,N
1582022175.3,286047002.9,N
1582022195.2,286047004.7,N
1582022215.0,286047003.2,N
1582022215.9,286047003.2,N
1582022235.8,286047003.6,N
1582022255.6,286047003.4,N
1582022275.4,286047003.3,N
1582022295.3,286047003.0,N
1582022315.1,286047003.7,N
1582022335.8,286047001.6,N
1582022355.7,286047002.2,N
1582022375.5,286046999.9,N
1582022395.4,286047001.2,N
1582022415.2,286046998.5,N
1582022435.0,286046998.9,N
1582022435.9,286046998.9,N
1582022455.8,286047000.8,N
1582022475.6,286047001.2,N
1582022495.5,286046998.1,N
1582022515.3,286046998.5,N
1582022535.1,286047001.0,N
1582022555.9,286047002.4,N
1582022575.7,286047002.5,N
1582022595.6,286047004.1,N
1582022615.4,286047005.3,N
1582022635.2,286047005.9,Y
1582022655.1,286047002.4,P
1582022656.0,286047002.4,P
1582022675.8,286047001.8,P
1582022695.7,286047000.5,N
1582022715.5,286047001.1,N
1582022735.3,286046998.7,N
1582022755.2,286046998.1,N
1582022775.0,286046998.4,N
1582022775.9,286046998.4,N
1582022795.8,286046998.6,N
1582022815.6,286046998.2,N
1582022835.4,286047002.2,N
1582022855.3,286047002.4,N
1582022875.1,286046998.5,N
1582022895.8,286047002.4,N
1582022915.7,286046999.0,N
1582022935.5,286046999.0,N
1582022955.4,286046999.1,N
1582022975.2,286047000.9,N
1582022995.0,286046998.7,N
1582022995.9,286046998.7,N
1582023015.8,286047000.8,N
1582023035.6,286047002.7,N
1582023055.5,286047000.9,N
1582023075.3,286046998.5,N
1582023095.1,286047000.1,N
1582023115.9,286047002.6,N
1582023135.7,286046998.7,N
1582023155.5,286047000.4,N
1582023175.4,286046998.2,N
1582023195.2,286047000.9,N
1582023215.1,286046998.5,N
1582023216.0,286046998.5,N
1582023235.8,286046996.8,N
1582023255.6,286046997.7,N
1582023275.5,286046995.5,N
1582023295.3,286046996.6,N
1582023315.2,286046999.2,N
1582023335.9,286046996.6,N
1582023355.7,286046999.2,N
1582023375.6,286046999.3,N
1582023395.4,286047001.0,N
1582023415.3,286047001.1,N
1582023435.1,286046998.6,N
1582023436.0,286046998.6,N
1582023455.8,286046998.4,N
1582023475.7,286046999.7,N
1582023495.5,286047001.2,N
1582023515.3,286047000.9,N
1582023535.2,286047000.6,N
1582023555.0,286046998.1,N
1582023555.9,286046998.1,N
1582023575.8,286047000.9,N
1582023595.6,286046998.2,N
